Home   Weather   Santa Barbara   Past weeks

Flag for USA Past Weather in Santa Barbara, California, USA — Yesterday and Last 2 Weeks

Now
59 °F

Clear.


Feels Like: 58 °F
Forecast: 57 / 76 °F
Wind: 6 mph from South

Location: Santa Barbara Municipal Airport

Current Time: Apr 23, 2017 at 2:51:21 am

Latest Report: Apr 23, 2017 at 1:53 am


Visibility: 10 mi

Pressure: 29.81 "Hg

Humidity: 84%

Dew Point: 54 °F

Location of Santa BarbaraLocation

Past Weather in Santa Barbara — Graph

°F

Santa Barbara Temperature Yesterday

Maximum temperature yesterday: 78 °F (at 1:53 pm)
Minimum temperature yesterday: 52 °F (at 5:53 am)
Average temperature yesterday: 63 °F

High & Low Weather Summary for the Past Weeks

 TemperatureHumidityPressure
High84 °F (Apr 21, 3:53 pm)100% (Apr 8, 12:02 am)30.15 "Hg (Apr 8, 12:02 am)
Low43 °F (Apr 10, 4:53 am)16% (Apr 21, 2:53 pm)29.81 "Hg (Apr 22, 6:53 pm)
Average60 °F72%30.01 "Hg
* Reported Apr 8 12:02 am — Apr 23 12:53 am, Santa Barbara, Weather by CustomWeather, © 2017

Note: Actual official high and low records may vary slightly from our data, if they occured in-between our weather recording intervals... More about our weather records

Advertising

Santa Barbara Weather History for the Previous 24 Hours

Scroll right to see more
 ConditionsComfort  
Time TempWeatherWind HumidityBarometerVisibility
12:53 am
Sun, Apr 23
60 °FClear.5 mph83%29.82 "Hg10 mi
11:53 pm
Sat, Apr 22
61 °FClear.7 mph81%29.82 "Hg10 mi
10:53 pm61 °FClear.3 mph83%29.83 "Hg10 mi
9:53 pm61 °FClear.3 mph83%29.83 "Hg10 mi
8:53 pm64 °FClear.3 mph65%29.81 "Hg10 mi
7:53 pm63 °FClear.6 mph73%29.81 "Hg10 mi
6:53 pm67 °FSunny.5 mph73%29.81 "Hg10 mi
5:53 pm67 °FSunny.6 mph71%29.82 "Hg10 mi
4:53 pm68 °FSunny.8 mph63%29.83 "Hg10 mi
3:53 pm69 °FSunny.9 mph66%29.84 "Hg10 mi
2:53 pm76 °FSunny.7 mph40%29.85 "Hg10 mi
1:53 pm78 °FSunny.3 mph39%29.86 "Hg10 mi
12:53 pm72 °FSunny.5 mph48%29.88 "Hg10 mi
11:53 am69 °FSunny.7 mph61%29.90 "Hg10 mi
10:53 am70 °FSunny.8 mph59%29.90 "Hg10 mi
9:53 am65 °FSunny.7 mph76%29.89 "Hg8 mi
8:53 am63 °FSunny.5 mph75%29.88 "Hg10 mi
7:53 am61 °FSunny.No wind78%29.88 "Hg10 mi
6:53 am53 °FSunny.No wind89%29.87 "Hg10 mi
5:53 am52 °FClear.No wind89%29.86 "Hg10 mi
4:53 am54 °FClear.No wind86%29.85 "Hg10 mi
3:53 am56 °FClear.No wind84%29.85 "Hg10 mi
2:53 am55 °FClear.No wind87%29.85 "Hg10 mi
Weather by CustomWeather, © 2017

See weather overviewHow to use our weather pages